Tracking 18987 objects as of 25-Feb-2018
HD Live streaming from Space Station
objects crossing your sky now

FENGYUN 1C DEB

Track FENGYUN 1C DEB now!
10-day predictions


NORAD ID: 29968
Int'l Code: 1999-025KS
Perigee: 814.0 km
Apogee: 948.7 km
Inclination: 98.9 °
Period: 102.4 minutes
Semi major axis: 7252 km
RCS: 0.0839 m2 (small)
Launch date: May 10, 1999
Source: People's Republic of China (PRC)
Launch site: Taiyaun Space Center, China (TSC)

Note: This is SATELLITE DEBRIS
aabbcc
Your satellite tracking list
Your tracking list is empty




NASA's NSSDC Master Catalog

Two Line Element Set (TLE):
1 29968U 99025KS  18056.62969516 -.00000029 +00000-0 +79345-5 0  9998
2 29968 098.8882 089.4728 0092836 071.2614 038.9757 14.05671292570374
Source of the keplerian elements: AFSPC